TimeCDT,TemperatureF,Dew PointF,Humidity,Sea Level PressureIn,VisibilityMPH,Wind Direction,Wind SpeedMPH,Gust SpeedMPH,PrecipitationIn,Events,Conditions,WindDirDegrees,DateUTC
12:10 AM,55.0,46.9,74,30.16,10.0,North,9.2,-,0.00,Rain,Light Rain,10,2013-04-22 05:10:00
12:54 AM,52.0,48.9,89,30.18,6.0,NNE,9.2,-,0.07,Rain,Light Rain,20,2013-04-22 05:54:00
1:54 AM,52.0,50.0,93,30.16,10.0,East,4.6,-,0.03,Rain,Light Rain,80,2013-04-22 06:54:00
2:54 AM,52.0,50.0,93,30.13,5.0,ESE,5.8,-,0.03,Rain,Light Rain,110,2013-04-22 07:54:00
3:54 AM,52.0,48.9,89,30.11,8.0,ESE,9.2,-,0.02,Rain,Light Rain,120,2013-04-22 08:54:00
4:54 AM,52.0,48.0,86,30.11,10.0,SE,6.9,-,0.00,,Overcast,140,2013-04-22 09:54:00
5:54 AM,50.0,46.9,89,30.10,10.0,SSE,6.9,-,N/A,,Overcast,150,2013-04-22 10:54:00
6:54 AM,50.0,46.0,86,30.10,10.0,SSE,5.8,-,0.00,,Overcast,150,2013-04-22 11:54:00
7:54 AM,52.0,44.1,74,30.10,10.0,SSE,9.2,-,0.00,Rain,Light Rain,150,2013-04-22 12:54:00
8:54 AM,53.1,44.1,71,30.09,10.0,SSE,10.4,-,0.00,,Overcast,150,2013-04-22 13:54:00
9:54 AM,54.0,44.1,69,30.09,10.0,South,12.7,-,0.00,Rain,Light Rain,170,2013-04-22 14:54:00
10:54 AM,55.0,44.1,67,30.09,10.0,South,12.7,-,0.00,,Overcast,170,2013-04-22 15:54:00
11:54 AM,55.9,44.1,64,30.07,10.0,South,9.2,-,N/A,,Overcast,170,2013-04-22 16:54:00
12:54 PM,59.0,45.0,60,30.04,10.0,SE,9.2,-,N/A,,Overcast,130,2013-04-22 17:54:00
1:54 PM,64.9,46.0,50,29.99,10.0,South,11.5,-,N/A,,Overcast,180,2013-04-22 18:54:00
2:54 PM,66.9,45.0,45,29.96,10.0,South,13.8,-,N/A,,Overcast,190,2013-04-22 19:54:00
3:54 PM,66.9,43.0,42,29.94,10.0,SSE,16.1,-,N/A,,Overcast,160,2013-04-22 20:54:00
4:54 PM,66.0,42.1,42,29.92,10.0,South,17.3,-,0.00,,Overcast,180,2013-04-22 21:54:00
5:54 PM,60.1,46.0,60,29.95,9.0,SSW,13.8,24.2,0.00,Rain,Light Rain,200,2013-04-22 22:54:00
6:54 PM,55.9,48.0,75,29.98,10.0,SW,11.5,-,0.01,Rain,Light Rain,230,2013-04-22 23:54:00
7:54 PM,54.0,48.0,80,30.01,5.0,SW,13.8,-,0.02,Rain,Light Rain,230,2013-04-23 00:54:00
8:54 PM,48.0,45.0,89,30.04,7.0,WNW,20.7,-,0.03,Rain,Light Rain,300,2013-04-23 01:54:00
9:01 PM,46.9,43.0,86,30.04,9.0,WNW,17.3,-,0.00,Rain,Light Rain,300,2013-04-23 02:01:00
9:54 PM,43.0,39.9,89,30.07,10.0,NW,17.3,-,0.02,Rain,Light Rain,320,2013-04-23 02:54:00
10:54 PM,39.9,37.0,89,30.09,10.0,NW,18.4,-,0.00,Rain,Light Rain,320,2013-04-23 03:54:00
11:54 PM,39.0,35.1,86,30.06,10.0,NNW,12.7,-,0.00,,Overcast,330,2013-04-23 04:54:00